Location: Unspecified
(0.0000°N, 0.0000°E)
Time: 03:43:41
(UTC+00:00)

Tiangong - Pass Details

Date: 28 September 2022
Orbit: 377 x 383 km, 41.5° (Epoch: 25 September)

Event Time Altitude Azimuth Distance (km) Brightness Sun altitude
Rises 18:56:06 0° 198° (SSW) 2,235 2.0 -16.4°
Reaches altitude 10° 18:58:55 10° 170° (S) 1,381 0.6 -17.1°
Enters shadow 18:59:13 11° 165° (SSE) 1,321 0.4 -17.1°
